• pl
  • eng

Awiacja
WIADOMOŚCI
ostatnia aktualizacja: 17.04.2020 19:04
Szanowni Państwo,

mając na uwadze sytuację związaną z pandemią wywołaną koronawirusem SARS-Cov-2 oraz w trosce o bezpieczeństwo Państwa oraz naszych pracowników, IMGW-PIB podjął decyzję o przeniesieniu kolejnej edycji Szkoły Meteorologii Lotniczej na przyszły rok. W tej chwili podanie dokładnego terminu szkoły nie jest możliwe, ale jak tylko będzie znany zostanie ogłoszony na naszych stronach internetowych, do których śledzenia serdecznie zapraszamy.

TAF FC 18:30 28.11.2020
  • WIND
  • SIGNIFICANT EURO
  • SIGNIFICANT
  • SIGMET
  • AIRMET
  • TAF FC
  • TAF FT
  • METAR GG30
  • METAR GG00


TAF EPLB 281730Z 2818/2903 35006KT 9999 -SN BKN020
TEMPO 2818/2903 BKN014
PROB40 TEMPO 2818/2903 1500 SHSN BKN006 BKN010CB=

TAF EPSY 281730Z 2818/2903 36006KT 9999 -SN BKN018
TEMPO 2818/2903 4000 SN BKN010
PROB30 TEMPO 2818/2823 2000 SHSN BKN008CB=

TAF EPZG 281730Z 2818/2903 29005KT 9999 BKN030
TEMPO 2818/2820 4000 BR
BECMG 2820/2823 BKN010
TEMPO 2821/2903 4000 -RA BR SCT003 BKN005=
Awiacja.imgw.pl jest pogodowym serwisem informacyjnym
Instytutu Meteorologii i Gospodarki Wodnej Państwowego Instytutu Badawczego.
Copyright IMGW PIB 2009-2019© Wszelkie prawa zastrzeżone.